TimeEDT,TemperatureF,Dew PointF,Humidity,Sea Level PressureIn,VisibilityMPH,Wind Direction,Wind SpeedMPH,Gust SpeedMPH,PrecipitationIn,Events,Conditions,WindDirDegrees,DateUTC
12:56 AM,38.8,32.9,79,30.06,10.0,Calm,Calm,-,N/A,,Clear,0,2012-10-07 04:56:00
1:56 AM,36.9,34.9,93,30.07,10.0,Calm,Calm,-,N/A,,Clear,0,2012-10-07 05:56:00
2:56 AM,37.9,36.9,96,30.08,10.0,South,3.5,-,N/A,,Mostly Cloudy,180,2012-10-07 06:56:00
3:56 AM,39.9,36.9,89,30.08,10.0,Calm,Calm,-,N/A,,Mostly Cloudy,0,2012-10-07 07:56:00
4:56 AM,41.0,37.9,89,30.08,10.0,Calm,Calm,-,N/A,,Mostly Cloudy,0,2012-10-07 08:56:00
5:56 AM,41.0,37.9,89,30.06,10.0,Calm,Calm,-,N/A,,Clear,0,2012-10-07 09:56:00
6:23 AM,39.2,37.4,93,30.03,10.0,Calm,Calm,-,N/A,,Clear,0,2012-10-07 10:23:00
6:56 AM,38.8,36.9,93,30.05,10.0,Calm,Calm,-,N/A,,Clear,0,2012-10-07 10:56:00
7:56 AM,38.8,37.9,97,30.07,10.0,East,3.5,-,N/A,,Clear,100,2012-10-07 11:56:00
8:56 AM,43.0,38.8,85,30.10,10.0,South,3.5,-,N/A,,Partly Cloudy,180,2012-10-07 12:56:00
9:56 AM,45.0,38.8,79,30.12,10.0,SSW,5.8,-,N/A,,Mostly Cloudy,210,2012-10-07 13:56:00
10:56 AM,45.9,36.0,68,30.12,10.0,South,4.6,-,N/A,,Overcast,180,2012-10-07 14:56:00
11:56 AM,45.9,36.0,68,30.11,10.0,SSE,4.6,-,N/A,,Overcast,150,2012-10-07 15:56:00
12:56 PM,47.8,36.9,66,30.09,10.0,Variable,4.6,-,N/A,,Mostly Cloudy,0,2012-10-07 16:56:00
1:56 PM,50.9,36.9,59,30.06,10.0,SSW,6.9,-,N/A,,Mostly Cloudy,200,2012-10-07 17:56:00
2:56 PM,50.9,36.9,59,30.03,10.0,South,5.8,-,N/A,,Mostly Cloudy,170,2012-10-07 18:56:00
3:56 PM,50.0,38.8,66,30.03,10.0,South,5.8,-,N/A,,Overcast,180,2012-10-07 19:56:00
4:56 PM,48.9,37.9,66,30.02,10.0,South,5.8,-,N/A,,Overcast,190,2012-10-07 20:56:00
5:56 PM,46.9,37.9,71,30.04,10.0,West,5.8,-,0.00,Rain,Light Rain,270,2012-10-07 21:56:00
6:56 PM,43.0,41.0,93,30.08,10.0,WNW,8.1,-,0.00,Rain,Light Rain Showers,290,2012-10-07 22:56:00
7:56 PM,43.0,39.9,89,30.09,9.0,West,4.6,-,0.00,Rain,Light Rain,280,2012-10-07 23:56:00
8:56 PM,43.0,41.0,93,30.10,10.0,SW,3.5,-,0.00,Rain,Light Rain,230,2012-10-08 00:56:00
9:56 PM,41.9,38.8,89,30.12,10.0,West,12.7,19.6,0.00,Rain,Light Rain,280,2012-10-08 01:56:00
10:08 PM,42.8,39.2,87,30.10,10.0,West,9.2,19.6,0.00,Rain,Light Rain,280,2012-10-08 02:08:00
10:38 PM,41.0,37.4,87,30.10,10.0,WNW,13.8,-,0.00,,Overcast,290,2012-10-08 02:38:00
10:56 PM,41.0,37.9,89,30.13,10.0,WNW,11.5,20.7,0.00,,Overcast,290,2012-10-08 02:56:00
11:10 PM,41.0,37.4,87,30.11,10.0,West,6.9,-,N/A,,Overcast,270,2012-10-08 03:10:00
11:23 PM,41.0,37.4,87,30.11,10.0,West,5.8,-,N/A,,Overcast,260,2012-10-08 03:23:00
11:43 PM,39.2,37.4,93,30.10,10.0,Calm,Calm,-,N/A,,Mostly Cloudy,0,2012-10-08 03:43:00
11:56 PM,37.9,36.0,93,30.14,10.0,Calm,Calm,-,N/A,,Partly Cloudy,0,2012-10-08 03:56:00